MST,Max TemperatureF,Mean TemperatureF,Min TemperatureF,Max Dew PointF,MeanDew PointF,Min DewpointF,Max Humidity, Mean Humidity, Min Humidity, Max Sea Level PressureIn, Mean Sea Level PressureIn, Min Sea Level PressureIn, Max VisibilityMiles, Mean VisibilityMiles, Min VisibilityMiles, Max Wind SpeedMPH, Mean Wind SpeedMPH, Max Gust SpeedMPH,PrecipitationIn, CloudCover, Events, WindDirDegrees
2013-1-1,15,8,1,9,3,-3,87,74,61,30.38,30.26,30.00,10,9,2,28,17,33,T,6,Snow,243
2013-1-2,16,10,4,8,5,-1,83,75,66,30.51,30.41,30.35,10,10,10,23,15,28,T,2,,248
2013-1-3,20,5,-11,5,-4,-16,91,68,45,30.68,30.55,30.18,10,10,10,17,5,23,0.00,0,,217
2013-1-4,21,4,-14,5,-7,-19,79,64,49,30.66,30.47,30.03,10,10,10,10,2,12,0.00,0,,231
2013-1-5,25,7,-12,5,-5,-16,79,61,42,30.71,30.53,30.14,10,10,10,24,6,32,0.00,0,,260
2013-1-6,37,16,-5,10,1,-10,82,56,29,30.51,30.27,29.98,10,10,10,26,8,32,0.00,0,,270
2013-1-7,34,22,10,12,7,0,62,47,32,30.16,30.05,29.94,10,10,10,31,12,40,0.00,0,,245
2013-1-8,32,27,21,22,20,14,81,72,63,30.36,30.13,29.91,10,10,10,36,22,43,0.00,6,,245
2013-1-9,42,30,17,23,17,11,84,60,35,30.44,30.25,29.95,10,10,10,22,8,36,0.00,1,,212
2013-1-10,41,35,28,20,15,11,63,47,30,29.93,29.61,29.37,10,10,10,21,18,28,0.00,1,,203
2013-1-11,31,15,-2,22,9,-7,88,73,58,30.04,29.53,29.29,10,7,0,31,12,39,T,7,Fog-Snow,265
2013-1-12,7,-1,-10,-3,-8,-13,82,73,63,30.23,30.06,29.70,10,10,8,14,4,16,0.00,6,,283
2013-1-13,4,-7,-18,-5,-11,-21,92,80,68,30.41,30.20,29.77,10,9,3,13,3,15,T,5,Snow,267
2013-1-14,1,-9,-19,-6,-13,-24,82,74,65,30.52,30.19,29.90,10,9,2,24,9,30,T,5,Snow,241
2013-1-15,15,7,-2,6,-1,-10,76,69,61,30.49,30.28,29.93,10,8,2,31,16,39,T,7,Snow,256
2013-1-16,25,15,5,11,7,2,76,66,55,30.63,30.53,30.45,10,10,10,31,12,39,0.00,0,,242
2013-1-17,34,15,-4,12,5,-8,87,63,38,30.75,30.60,30.38,10,10,10,22,6,28,0.00,0,,236
2013-1-18,35,29,22,12,9,6,55,45,35,30.35,30.28,30.20,10,10,10,36,23,43,0.00,0,,244
2013-1-19,37,28,18,11,9,6,61,45,29,30.41,30.33,30.25,10,10,10,33,16,40,0.00,0,,243
2013-1-20,34,27,20,10,8,5,57,46,35,30.36,30.32,30.25,10,10,10,26,13,33,0.00,0,,250
2013-1-21,36,27,18,13,9,6,57,48,38,30.32,30.26,30.17,10,10,10,38,21,45,0.00,0,,251
2013-1-22,41,33,25,9,6,3,46,35,23,30.28,30.22,30.17,10,10,10,33,17,43,0.00,0,,248
2013-1-23,49,40,31,10,6,3,35,26,16,30.25,30.19,30.12,10,10,10,25,12,31,0.00,0,,229
2013-1-24,41,33,24,28,19,8,82,58,33,30.21,30.16,30.12,10,10,10,31,17,39,0.00,2,,243
2013-1-25,40,35,29,29,27,26,85,72,59,30.25,30.18,30.07,10,10,10,26,12,32,0.00,6,,244
2013-1-26,45,37,29,32,28,26,92,71,49,30.06,29.91,29.73,10,10,10,24,11,30,0.00,4,,234
2013-1-27,43,37,31,34,30,24,96,80,64,29.80,29.73,29.63,10,9,1,33,15,45,0.01,6,Snow,234
2013-1-28,31,20,9,30,18,3,100,84,67,29.91,29.73,29.64,10,4,0,25,14,32,0.09,7,Fog-Snow,259
2013-1-29,17,9,1,12,6,-1,86,78,70,30.16,29.87,29.67,10,7,0,25,14,31,0.01,5,Fog-Snow,264
2013-1-30,31,18,5,21,11,1,88,76,63,30.12,29.97,29.82,10,9,4,38,23,46,T,6,Snow,256
2013-1-31,33,28,23,22,20,17,81,72,63,30.23,30.12,29.94,10,10,10,33,21,44,0.00,4,,254